• Join FlightAware (Why Join?)
  • Login
  • US Flag 
02:06AM EST


 

Airport Tracker/Info


-or-


 

Live Flight TrackerFlight Track Log ✈ DAL268 ✈ 09-Sep-2013 ✈ KSFO - KJFK

Flight Track Log - Related Links

Times and Time Zones

All times are in EDT time to prevent confusion due to time zone crossing. See the DAL268 flight status page for this flight to view local times or setup timezone preferences in your user account.

Time Position Orientation Groundspeed Altitude Reporting Facility
EDT Latitude Longitude Course Direction KTS MPH feet Rate Location/Type
02:28PM 37.6234 -122.3700 38° Northeast 164 189 300  Level FlightAware ADS-B
02:28PM 37.6320 -122.3640 29° Northeast 172 198 700 1,860 Climbing FlightAware ADS-B
02:28PM 37.6375 -122.3580 41° Northeast 174 200 1,000 2,460 Climbing FlightAware ADS-B
02:28PM 37.6393 -122.3560 41° Northeast 178 205 1,200 2,760 Climbing FlightAware ADS-B
02:29PM 37.6452 -122.3470 50° Northeast 184 212 1,600 2,160 Climbing FlightAware ADS-B
02:29PM 37.6540 -122.3350 47° Northeast 195 224 2,100 1,500 Climbing FlightAware ADS-B
02:29PM 37.6635 -122.3200 51° Northeast 214 246 2,400 1,140 Climbing FlightAware ADS-B
02:29PM 37.6740 -122.3050 49° Northeast 237 273 2,700 1,380 Climbing FlightAware ADS-B
02:30PM 37.6854 -122.2880 50° Northeast 259 298 3,100 2,100 Climbing FlightAware ADS-B
02:30PM 37.7006 -122.2650 50° Northeast 268 308 3,900 2,640 Climbing FlightAware ADS-B
02:30PM 37.7256 -122.2290 49° Northeast 275 316 5,300 2,700 Climbing FlightAware ADS-B
02:31PM 37.7287 -122.2270 27° Northeast 277 319 5,400 2,400 Climbing FlightAware ADS-B
02:31PM 37.7418 -122.2200 23° Northeast 276 318 5,900 2,400 Climbing FlightAware ADS-B
02:31PM 37.7455 -122.2190 12° North 275 316 6,000 2,520 Climbing FlightAware ADS-B
02:31PM 37.7513 -122.2190 360° North 274 315 6,200 2,700 Climbing FlightAware ADS-B
02:31PM 37.7696 -122.2260 343° North 270 311 6,900 2,700 Climbing FlightAware ADS-B
02:31PM 37.7787 -122.2320 332° Northwest 269 310 7,300 2,760 Climbing FlightAware ADS-B
02:32PM 37.8157 -122.2630 327° Northwest 269 310 8,900 2,340 Climbing FlightAware ADS-B
02:32PM 37.8581 -122.2750 347° North 269 310 10,000 1,500 Climbing FlightAware ADS-B
02:33PM 37.8780 -122.2690 13° North 317 365 10,100 180 Climbing FlightAware ADS-B
02:33PM 37.8942 -122.2580 28° Northeast 314 361 10,100  Level FlightAware ADS-B
02:33PM 37.9052 -122.2440 45° Northeast 308 354 10,100  Level FlightAware ADS-B
02:33PM 37.9113 -122.2320 57° Northeast 308 354 10,100  Level FlightAware ADS-B
02:33PM 37.9137 -122.2260 63° Northeast 309 356 10,100 480 Level FlightAware ADS-B
02:33PM 37.9172 -122.2110 74° East 312 359 10,200 2,280 Climbing FlightAware ADS-B
02:34PM 37.9249 -122.1560 80° East 312 359 11,600 2,700 Climbing FlightAware ADS-B
02:34PM 37.9322 -122.1000 81° East 314 361 13,000 2,400 Climbing FlightAware ADS-B
02:35PM 37.9395 -122.0450 80° East 324 373 14,100 2,160 Climbing FlightAware ADS-B
02:36PM 37.9511 -121.9580 80° East 338 389 15,700 1,980 Climbing FlightAware ADS-B
02:36PM 37.9593 -121.8970 80° East 351 404 16,600 1,740 Climbing FlightAware ADS-B
02:37PM 37.9679 -121.8330 80° East 364 419 17,500 1,860 Climbing FlightAware ADS-B
02:37PM 37.9800 -121.7440 80° East 374 430 18,900 1,320 Climbing FlightAware
02:38PM 37.9872 -121.6860 81° East 367 422 19,000 60 Climbing FlightAware ADS-B
02:38PM 37.9961 -121.6180 81° East 380 437 19,000 180 Level FlightAware ADS-B
02:39PM 38.0047 -121.5520 81° East 380 437 19,200 1,200 Climbing FlightAware ADS-B
02:39PM 38.0133 -121.4850 81° East 383 441 20,200 1,740 Climbing FlightAware ADS-B
02:40PM 38.0223 -121.4160 81° East 394 453 21,000 720 Climbing FlightAware ADS-B
02:40PM 38.0318 -121.3420 81° East 400 460 21,000 360 Level FlightAware ADS-B
02:41PM 38.0368 -121.3040 81° East 403 464 21,300 900 Climbing FlightAware ADS-B
02:41PM 38.0443 -121.2700 74° East 409 471 21,500 720 Climbing FlightAware ADS-B
02:41PM 38.0650 -121.1960 70° East 429 494 21,900 1,200 Climbing FlightAware
02:42PM 38.0900 -121.1100 70° East 438 504 22,900 1,560 Climbing FlightAware
02:43PM 38.1130 -121.0240 71° East 446 513 23,800 1,560 Climbing FlightAware
02:43PM 38.1280 -120.9500 76° East 451 519 24,600 1,500 Climbing FlightAware
02:44PM 38.1460 -120.8500 77° East 458 527 25,500 1,320 Climbing FlightAware
02:44PM 38.1640 -120.7500 77° East 466 536 26,300 1,260 Climbing FlightAware
02:45PM 38.1790 -120.6630 78° East 472 543 27,000 1,320 Climbing FlightAware
02:46PM 38.1970 -120.5600 77° East 477 549 27,900 1,320 Climbing FlightAware
02:46PM 38.2130 -120.4670 78° East 481 554 28,600 1,320 Climbing FlightAware
02:47PM 38.2300 -120.3690 78° East 478 550 29,500 1,200 Climbing FlightAware
02:47PM 38.2450 -120.2810 78° East 477 549 30,000 420 Climbing FlightAware
02:48PM 38.2620 -120.1810 78° East 481 554 30,000 420 Level FlightAware
02:48PM 38.2770 -120.0920 78° East 479 551 30,500 1,320 Climbing FlightAware
02:49PM 38.2940 -119.9910 78° East 471 542 31,600 1,560 Climbing FlightAware
02:50PM 38.3140 -119.8750 78° East 470 541 32,600 1,020 Climbing FlightAware
02:50PM 38.3300 -119.7770 78° East 471 542 33,000 300 Climbing FlightAware
02:51PM 38.3440 -119.6940 78° East 470 541 33,000 480 Level FlightAware
02:51PM 38.3610 -119.5940 78° East 467 537 33,600 1,080 Climbing FlightAware
02:52PM 38.3760 -119.4990 79° East 466 536 34,300 960 Climbing FlightAware
02:53PM 38.3920 -119.4010 78° East 471 542 34,800 600 Climbing FlightAware
02:53PM 38.4070 -119.3130 78° East 474 545 35,000 120 Climbing FlightAware
02:54PM 38.4220 -119.2160 79° East 473 544 35,000  Level FlightAware
02:54PM 38.4390 -119.1120 78° East 474 545 35,000 540 Level FlightAware
02:55PM 38.4550 -119.0130 78° East 472 543 35,700 1,200 Climbing FlightAware
02:56PM 38.4690 -118.9270 78° East 468 539 36,400 960 Climbing FlightAware
02:56PM 38.4840 -118.8300 79° East 471 542 36,800 480 Climbing FlightAware
02:57PM 38.5000 -118.7320 78° East 472 543 37,000 120 Climbing FlightAware
02:57PM 38.5140 -118.6370 79° East 475 547 37,000  Level FlightAware
02:58PM 38.5290 -118.5450 78° East 478 550 37,000  Level FlightAware
02:58PM 38.5430 -118.4530 79° East 476 548 37,000  Level FlightAware
02:59PM 38.5590 -118.3470 79° East 477 549 37,000  Level FlightAware
03:00PM 38.5730 -118.2580 79° East 479 551 37,000  Level FlightAware
03:00PM 38.5880 -118.1590 79° East 480 552 37,000  Level FlightAware
03:01PM 38.6030 -118.0640 79° East 480 552 37,000  Level FlightAware
03:02PM 38.6220 -117.9370 79° East 479 551 37,000  Level FlightAware
03:02PM 38.6350 -117.8520 79° East 479 551 37,000  Level FlightAware
03:03PM 38.6470 -117.7710 79° East 479 551 37,000  Level FlightAware
03:03PM 38.6600 -117.6860 79° East 479 551 37,000  Level FlightAware
03:04PM 38.6720 -117.6060 79° East 479 551 37,000  Level FlightAware
03:05PM 38.6860 -117.5160 79° East 479 551 37,000  Level FlightAware
03:05PM 38.6990 -117.4300 79° East 479 551 37,000  Level FlightAware
03:06PM 38.7120 -117.3450 79° East 479 551 37,000  Level FlightAware
03:06PM 38.7250 -117.2570 79° East 479 551 37,000  Level FlightAware
03:07PM 38.7410 -117.1480 79° East 479 551 37,000  Level FlightAware
03:08PM 38.7550 -117.0600 78° East 479 551 37,000  Level FlightAware
03:08PM 38.7680 -116.9730 79° East 479 551 37,000  Level FlightAware
03:09PM 38.7810 -116.8850 79° East 479 551 37,000  Level FlightAware
03:10PM 38.7940 -116.8000 79° East 479 551 37,000  Level FlightAware
03:10PM 38.8070 -116.7120 79° East 479 551 37,000  Level FlightAware
03:11PM 38.8210 -116.6220 79° East 479 551 37,000  Level FlightAware
03:12PM 38.8586 -116.2750 79° East 475 547 37,000  Level Oakland Center
03:13PM 38.8811 -116.1053 80° East 479 551 37,000  Level Oakland Center
03:14PM 38.9111 -115.8717 81° East 475 547 37,000  Level Salt Lake Center
03:15PM 38.9333 -115.7036 80° East 476 548 37,000  Level Salt Lake Center
03:16PM 38.9544 -115.5369 81° East 473 544 37,000  Level Salt Lake Center
03:17PM 38.9811 -115.3322 80° East 477 549 37,000  Level Salt Lake Center
03:18PM 39.0017 -115.1647 81° East 476 548 37,000  Level Salt Lake Center
03:19PM 39.0231 -114.9967 81° East 476 548 37,000  Level Salt Lake Center
03:20PM 39.0436 -114.8286 81° East 477 549 37,000  Level Salt Lake Center
03:26PM 39.1610 -113.8240 81° East 481 554 37,000  Level FlightAware
03:27PM 39.1790 -113.6640 82° East 481 554 37,000  Level FlightAware
03:28PM 39.1900 -113.5720 81° East 482 555 37,000  Level FlightAware
03:28PM 39.2010 -113.4700 82° East 483 556 37,000  Level FlightAware
03:29PM 39.2120 -113.3750 81° East 483 556 37,000  Level FlightAware
03:29PM 39.2230 -113.2880 81° East 483 556 37,000  Level FlightAware
03:30PM 39.2252 -113.2440 86° East 486 559 37,000  Level FlightAware ADS-B
03:30PM 39.2373 -113.1310 82° East 486 559 37,000  Level FlightAware ADS-B
03:31PM 39.2475 -113.0360 82° East 487 560 37,000  Level FlightAware ADS-B
03:31PM 39.2566 -112.9490 82° East 487 560 37,000  Level FlightAware ADS-B
03:32PM 39.2639 -112.8790 82° East 488 562 37,000  Level FlightAware ADS-B
03:32PM 39.2765 -112.7570 82° East 489 563 37,000  Level FlightAware ADS-B
03:33PM 39.2856 -112.6690 82° East 489 563 37,000  Level FlightAware ADS-B
03:33PM 39.2941 -112.5860 82° East 489 563 37,000  Level FlightAware ADS-B
03:33PM 39.2972 -112.5580 82° East 490 564 37,000  Level FlightAware ADS-B
03:34PM 39.3028 -112.5250 78° East 494 568 37,000  Level FlightAware ADS-B
03:34PM 39.3250 -112.4370 72° East 499 574 37,000  Level FlightAware ADS-B
03:35PM 39.3505 -112.3510 69° East 500 575 37,000  Level FlightAware ADS-B
03:35PM 39.3754 -112.2690 69° East 500 575 37,000  Level FlightAware ADS-B
03:36PM 39.3848 -112.2390 68° East 501 577 37,000  Level FlightAware ADS-B
03:36PM 39.3983 -112.1950 68° East 501 577 37,000  Level FlightAware ADS-B
03:36PM 39.4403 -112.0600 68° East 501 577 37,000  Level FlightAware ADS-B
03:37PM 39.4665 -111.9760 68° East 502 578 37,000  Level FlightAware ADS-B
03:37PM 39.4925 -111.8920 68° East 503 579 37,000  Level FlightAware ADS-B
03:38PM 39.5148 -111.8200 68° East 505 581 37,000  Level FlightAware ADS-B
03:39PM 39.5232 -111.7920 69° East 505 581 37,000  Level FlightAware ADS-B
03:39PM 39.5809 -111.6030 68° East 507 583 37,000  Level FlightAware ADS-B
03:40PM 39.6061 -111.5200 68° East 508 585 37,000  Level FlightAware ADS-B
03:40PM 39.6308 -111.4280 71° East 506 582 37,000  Level FlightAware ADS-B
03:40PM 39.6394 -111.3840 76° East 504 580 37,000  Level FlightAware ADS-B
03:41PM 39.6492 -111.3170 79° East 503 579 37,000  Level FlightAware ADS-B
03:41PM 39.6514 -111.3020 79° East 504 580 37,000  Level FlightAware ADS-B
03:42PM 39.6718 -111.1530 80° East 505 581 37,000  Level FlightAware ADS-B
03:42PM 39.6836 -111.0670 80° East 505 581 37,000  Level FlightAware ADS-B
03:43PM 39.6923 -111.0030 80° East 504 580 37,000  Level FlightAware ADS-B
03:43PM 39.7114 -110.8610 80° East 503 579 37,000  Level FlightAware ADS-B
03:44PM 39.7240 -110.7670 80° East 502 578 37,000  Level FlightAware ADS-B
03:45PM 39.7460 -110.6000 80° East 501 577 37,000  Level FlightAware
03:45PM 39.7590 -110.5070 80° East 499 574 37,000  Level FlightAware
03:46PM 39.7720 -110.4040 81° East 497 572 37,000  Level FlightAware
03:47PM 39.7850 -110.3010 81° East 494 568 37,000  Level FlightAware
03:47PM 39.7990 -110.1990 80° East 492 566 37,000  Level FlightAware
03:48PM 39.8120 -110.0910 81° East 489 563 37,000  Level FlightAware
03:48PM 39.8240 -109.9980 80° East 488 562 37,000  Level FlightAware
03:49PM 39.8390 -109.8820 80° East 485 558 37,000  Level FlightAware
03:50PM 39.8540 -109.7580 81° East 486 559 37,000  Level FlightAware
03:50PM 39.8660 -109.6640 81° East 486 559 37,000  Level FlightAware
03:51PM 39.8790 -109.5600 81° East 487 560 37,000  Level FlightAware
03:51PM 39.8900 -109.4660 81° East 488 562 37,000  Level FlightAware
03:52PM 39.9030 -109.3620 81° East 489 563 37,000  Level FlightAware
03:53PM 39.9150 -109.2600 81° East 489 563 37,000  Level FlightAware
03:53PM 39.9280 -109.1560 81° East 491 565 37,000  Level FlightAware
03:54PM 39.9400 -109.0480 82° East 492 566 37,000  Level FlightAware
03:54PM 39.9520 -108.9520 81° East 493 567 37,000  Level FlightAware
03:55PM 39.9620 -108.8660 81° East 494 568 37,000  Level FlightAware
03:55PM 39.9750 -108.7560 81° East 494 568 37,000  Level FlightAware
03:56PM 39.9880 -108.6410 82° East 495 570 37,000  Level FlightAware
03:57PM 39.9990 -108.5460 81° East 496 571 37,000 300 Level FlightAware
03:57PM 40.0110 -108.4390 82° East 496 571 37,400 780 Climbing FlightAware
03:58PM 40.0220 -108.3390 82° East 495 570 37,900 840 Climbing FlightAware
03:58PM 40.0340 -108.2290 82° East 494 568 38,500 900 Climbing FlightAware
03:59PM 40.0450 -108.1310 82° East 490 564 39,000 420 Climbing FlightAware
04:00PM 40.0560 -108.0260 82° East 487 560 39,000  Level FlightAware
04:00PM 40.0700 -107.9170 80° East 488 562 39,000  Level FlightAware
04:01PM 40.0850 -107.8210 78° East 489 563 39,000  Level FlightAware
04:01PM 40.1020 -107.7210 77° East 492 566 39,000  Level FlightAware
04:02PM 40.1190 -107.6210 77° East 493 567 39,000  Level FlightAware
04:02PM 40.1360 -107.5190 78° East 494 568 39,000  Level FlightAware
04:03PM 40.1540 -107.4080 78° East 494 568 39,000  Level FlightAware
04:04PM 40.1730 -107.2900 78° East 493 567 39,000  Level FlightAware
04:04PM 40.1910 -107.1810 78° East 494 568 39,000  Level FlightAware
04:05PM 40.2100 -107.0660 78° East 494 568 39,000  Level FlightAware
04:06PM 40.2260 -106.9700 78° East 494 568 39,000  Level FlightAware
04:06PM 40.2460 -106.8460 78° East 494 568 39,000  Level FlightAware
04:07PM 40.2630 -106.7350 79° East 494 568 39,000  Level FlightAware
04:08PM 40.2800 -106.6300 78° East 495 570 39,000  Level FlightAware
04:08PM 40.2970 -106.5220 78° East 495 570 39,000  Level FlightAware
04:09PM 40.3110 -106.4280 79° East 495 570 39,000  Level FlightAware
04:09PM 40.3280 -106.3220 78° East 494 568 39,000  Level FlightAware
04:10PM 40.3440 -106.2190 78° East 493 567 39,000  Level FlightAware
04:10PM 40.3590 -106.1220 78° East 492 566 39,000  Level FlightAware
04:11PM 40.3740 -106.0250 78° East 489 563 39,000  Level FlightAware
04:11PM 40.3870 -105.9340 79° East 488 562 39,000  Level FlightAware
04:12PM 40.4030 -105.8310 78° East 489 563 39,000  Level FlightAware
04:13PM 40.4190 -105.7260 79° East 489 563 39,000  Level FlightAware
04:13PM 40.4410 -105.6270 74° East 491 565 39,000  Level FlightAware
04:14PM 40.4700 -105.5270 69° East 492 566 39,000  Level FlightAware
04:14PM 40.4940 -105.4480 68° East 491 565 39,000  Level FlightAware
04:15PM 40.5230 -105.3480 69° East 491 565 39,000  Level FlightAware
04:15PM 40.5450 -105.2530 73° East 491 565 39,000  Level FlightAware
04:16PM 40.5630 -105.1530 77° East 492 566 39,000  Level FlightAware
04:17PM 40.5800 -105.0630 76° East 490 564 39,000  Level FlightAware
04:17PM 40.6000 -104.9580 76° East 491 565 39,000  Level FlightAware
04:18PM 40.6140 -104.8450 81° East 490 564 39,000  Level FlightAware
04:18PM 40.6230 -104.7450 83° East 488 562 39,000  Level FlightAware
04:19PM 40.6300 -104.6400 85° East 488 562 39,000  Level FlightAware
04:20PM 40.6380 -104.5320 84° East 486 559 39,000  Level FlightAware
04:20PM 40.6450 -104.4370 84° East 486 559 39,000  Level FlightAware
04:21PM 40.6510 -104.3410 85° East 485 558 39,000  Level FlightAware
04:21PM 40.6590 -104.2250 85° East 484 557 39,000  Level FlightAware
04:22PM 40.6650 -104.1320 85° East 484 557 39,000  Level FlightAware
04:22PM 40.6720 -104.0250 85° East 482 555 39,000  Level FlightAware
04:23PM 40.6800 -103.9020 85° East 482 555 39,000  Level FlightAware
04:24PM 40.6870 -103.7940 85° East 482 555 39,000  Level FlightAware
04:24PM 40.6930 -103.7080 85° East 482 555 39,000  Level FlightAware
04:25PM 40.7000 -103.5960 85° East 482 555 39,000  Level FlightAware
04:26PM 40.7080 -103.4680 85° East 480 552 39,000  Level FlightAware
04:26PM 40.7140 -103.3730 85° East 478 550 39,000  Level FlightAware
04:27PM 40.7200 -103.2670 86° East 477 549 39,000  Level FlightAware
04:27PM 40.7250 -103.1740 86° East 478 550 39,000  Level FlightAware
04:28PM 40.7310 -103.0710 86° East 478 550 39,000  Level FlightAware
04:29PM 40.7370 -102.9680 86° East 479 551 39,000  Level FlightAware
04:29PM 40.7440 -102.8540 85° East 479 551 39,000  Level FlightAware
04:30PM 40.7480 -102.7710 86° East 479 551 39,000  Level FlightAware
04:30PM 40.7540 -102.6600 86° East 478 550 39,000  Level FlightAware
04:31PM 40.7600 -102.5560 86° East 478 550 39,000  Level FlightAware
04:31PM 40.7660 -102.4520 86° East 479 551 39,000  Level FlightAware
04:32PM 40.7700 -102.3580 87° East 478 550 39,000  Level FlightAware
04:33PM 40.7760 -102.2510 86° East 477 549 39,000  Level FlightAware
04:33PM 40.7810 -102.1490 86° East 476 548 39,000  Level FlightAware
04:34PM 40.7870 -102.0400 86° East 476 548 39,000  Level FlightAware
04:35PM 40.7910 -101.9510 87° East 476 548 39,000  Level FlightAware
04:35PM 40.7960 -101.8330 87° East 476 548 39,000  Level FlightAware
04:36PM 40.8010 -101.7410 86° East 476 548 39,000  Level FlightAware
04:36PM 40.8060 -101.6530 86° East 476 548 39,000  Level FlightAware
04:37PM 40.8110 -101.5610 86° East 476 548 39,000  Level FlightAware
04:38PM 40.8160 -101.4670 86° East 476 548 39,000  Level FlightAware
04:38PM 40.8200 -101.3760 87° East 476 548 39,000  Level FlightAware
04:39PM 40.8250 -101.2870 86° East 476 548 39,000  Level FlightAware
04:39PM 40.8300 -101.1990 86° East 476 548 39,000  Level FlightAware
04:40PM 40.8350 -101.1070 86° East 476 548 39,000  Level FlightAware
04:41PM 40.8390 -101.0180 87° East 476 548 39,000  Level FlightAware
04:41PM 40.8440 -100.9340 85° East 476 548 39,000  Level FlightAware
04:42PM 40.8480 -100.8460 87° East 476 548 39,000  Level FlightAware
04:42PM 40.8530 -100.7520 86° East 476 548 39,000  Level FlightAware
04:43PM 40.8580 -100.6680 85° East 476 548 39,000  Level FlightAware
04:44PM 40.8630 -100.5740 86° East 476 548 39,000  Level FlightAware
04:44PM 40.8680 -100.4830 86° East 476 548 39,000  Level FlightAware
04:45PM 40.8720 -100.3940 87° East 476 548 39,000  Level FlightAware
04:46PM 40.8715 -99.8853 90° East 470 541 39,000  Level FlightAware ADS-B
04:47PM 40.8745 -99.7856 88° East 470 541 39,000  Level FlightAware ADS-B
04:48PM 40.8810 -99.5550 88° East 470 541 39,000  Level FlightAware
04:49PM 40.8840 -99.4260 88° East 471 542 39,000  Level FlightAware
04:49PM 40.8855 -99.3840 87° East 472 543 39,000  Level FlightAware ADS-B
04:50PM 40.8877 -99.2974 88° East 473 544 39,000  Level FlightAware ADS-B
04:50PM 40.8899 -99.2109 88° East 474 545 39,000  Level FlightAware ADS-B
04:51PM 40.8921 -99.1189 88° East 475 547 39,000  Level FlightAware ADS-B
04:52PM 40.8950 -98.9750 88° East 474 545 39,000  Level FlightAware
04:52PM 40.8962 -98.9399 87° East 474 545 39,000  Level FlightAware ADS-B
04:52PM 40.8959 -98.8775 90° East 475 547 39,000  Level FlightAware ADS-B
04:52PM 40.8918 -98.8434 99° East 471 542 39,000  Level FlightAware ADS-B
04:53PM 40.8719 -98.7610 108° East 471 542 39,000  Level FlightAware ADS-B
04:53PM 40.8501 -98.6796 109° East 471 542 39,000  Level FlightAware ADS-B
04:54PM 40.8237 -98.5790 109° East 472 543 39,000  Level FlightAware ADS-B
04:55PM 40.7983 -98.4824 109° East 471 542 39,000  Level FlightAware ADS-B
04:55PM 40.7767 -98.3998 109° East 471 542 39,000  Level FlightAware ADS-B
04:56PM 40.7555 -98.3178 109° East 471 542 39,000  Level FlightAware ADS-B
04:56PM 40.7283 -98.2115 109° East 470 541 39,000  Level FlightAware ADS-B
04:57PM 40.7076 -98.1298 108° East 471 542 39,000  Level FlightAware ADS-B
04:57PM 40.6868 -98.0481 109° East 471 542 39,000  Level FlightAware ADS-B
04:58PM 40.6657 -97.9666 109° East 471 542 39,000  Level FlightAware ADS-B
04:58PM 40.6441 -97.8829 109° East 471 542 39,000  Level FlightAware ADS-B
04:59PM 40.6229 -97.8009 109° East 471 542 39,000  Level FlightAware ADS-B
04:59PM 40.6017 -97.7195 109° East 473 544 39,000  Level FlightAware ADS-B
05:00PM 40.5807 -97.6367 108° East 474 545 39,000  Level FlightAware ADS-B
05:00PM 40.5585 -97.5472 108° East 472 543 39,000  Level FlightAware ADS-B
05:01PM 40.5374 -97.4608 108° East 471 542 39,000  Level FlightAware ADS-B
05:01PM 40.5166 -97.3792 109° East 470 541 39,000  Level FlightAware ADS-B
05:02PM 40.5003 -97.3160 109° East 468 539 39,000  Level FlightAware ADS-B
05:02PM 40.4974 -97.3008 104° East 469 540 39,000  Level FlightAware ADS-B
05:02PM 40.4953 -97.2808 98° East 470 541 39,000  Level FlightAware ADS-B
05:02PM 40.4918 -97.1951 93° East 473 544 39,000  Level FlightAware ADS-B
05:03PM 40.4869 -97.0994 94° East 474 545 39,000  Level FlightAware ADS-B
05:04PM 40.4808 -97.0127 95° East 472 543 39,000  Level FlightAware ADS-B
05:04PM 40.4738 -96.9263 96° East 473 544 39,000  Level FlightAware ADS-B
05:05PM 40.4665 -96.8410 96° East 473 544 39,000  Level FlightAware ADS-B
05:05PM 40.4594 -96.7582 96° East 474 545 39,000  Level FlightAware ADS-B
05:06PM 40.4544 -96.6718 94° East 474 545 39,000  Level FlightAware ADS-B
05:06PM 40.4500 -96.5864 94° East 473 544 39,000  Level FlightAware ADS-B
05:07PM 40.4451 -96.4984 94° East 473 544 39,000  Level FlightAware ADS-B
05:07PM 40.4399 -96.4086 94° East 473 544 39,000  Level FlightAware ADS-B
05:08PM 40.4346 -96.3199 94° East 473 544 39,000  Level FlightAware ADS-B
05:08PM 40.4293 -96.2341 95° East 474 545 39,000  Level FlightAware ADS-B
05:09PM 40.4239 -96.1471 95° East 475 547 39,000  Level FlightAware ADS-B
05:09PM 40.4173 -96.0434 95° East 476 548 39,000  Level FlightAware ADS-B
05:10PM 40.4118 -95.9565 95° East 477 549 39,000  Level FlightAware ADS-B
05:10PM 40.4060 -95.8665 95° East 478 550 39,000  Level FlightAware ADS-B
05:11PM 40.4004 -95.7802 95° East 478 550 39,000  Level FlightAware ADS-B
05:11PM 40.3948 -95.6938 95° East 478 550 39,000  Level FlightAware ADS-B
05:12PM 40.3891 -95.6068 95° East 478 550 39,000  Level FlightAware ADS-B
05:12PM 40.3833 -95.5193 95° East 479 551 39,000  Level FlightAware ADS-B
05:13PM 40.3774 -95.4326 95° East 478 550 39,000  Level FlightAware ADS-B
05:13PM 40.3695 -95.3176 95° East 479 551 39,000  Level FlightAware ADS-B
05:14PM 40.3633 -95.2266 95° East 480 552 39,000  Level FlightAware ADS-B
05:14PM 40.3570 -95.1372 95° East 481 554 39,000  Level FlightAware ADS-B
05:15PM 40.3507 -95.0487 95° East 481 554 39,000  Level FlightAware ADS-B
05:15PM 40.3440 -94.9560 95° East 482 555 39,000  Level FlightAware ADS-B
05:16PM 40.3377 -94.8682 95° East 482 555 39,000  Level FlightAware ADS-B
05:16PM 40.3311 -94.7792 96° East 482 555 39,000  Level FlightAware ADS-B
05:17PM 40.3247 -94.6917 95° East 482 555 39,000  Level FlightAware ADS-B
05:17PM 40.3181 -94.6040 96° East 482 555 39,000  Level FlightAware ADS-B
05:18PM 40.3112 -94.5132 96° East 482 555 39,000  Level FlightAware ADS-B
05:19PM 40.3044 -94.4242 96° East 482 555 39,000  Level FlightAware ADS-B
05:19PM 40.2977 -94.3367 96° East 482 555 39,000  Level FlightAware ADS-B
05:20PM 40.2909 -94.2497 96° East 482 555 39,000  Level FlightAware ADS-B
05:20PM 40.2827 -94.1465 96° East 484 557 39,000  Level FlightAware ADS-B
05:21PM 40.2740 -94.0370 96° East 484 557 39,000  Level FlightAware ADS-B
05:22PM 40.2629 -93.8991 96° East 483 556 39,000  Level FlightAware ADS-B
05:22PM 40.2543 -93.7945 96° East 483 556 39,000  Level FlightAware ADS-B
05:23PM 40.2470 -93.7062 96° East 482 555 39,000  Level FlightAware ADS-B
05:23PM 40.2380 -93.6040 97° East 480 552 39,000  Level FlightAware
05:23PM 40.2364 -93.5801 95° East 481 554 39,000  Level FlightAware ADS-B
05:24PM 40.2289 -93.4911 96° East 480 552 39,000  Level FlightAware ADS-B
05:24PM 40.2216 -93.4050 96° East 479 551 39,000  Level FlightAware ADS-B
05:25PM 40.2140 -93.3180 96° East 478 550 39,000  Level FlightAware ADS-B
05:25PM 40.2063 -93.2292 96° East 478 550 39,000  Level FlightAware ADS-B
05:26PM 40.1985 -93.1401 97° East 478 550 39,000  Level FlightAware ADS-B
05:26PM 40.1908 -93.0530 97° East 478 550 39,000  Level FlightAware ADS-B
05:27PM 40.1831 -92.9670 97° East 478 550 39,000  Level FlightAware ADS-B
05:27PM 40.1754 -92.8806 97° East 478 550 39,000  Level FlightAware ADS-B
05:28PM 40.1646 -92.7623 97° East 478 550 39,000  Level FlightAware ADS-B
05:29PM 40.1520 -92.6280 97° East 478 550 39,000  Level FlightAware
05:30PM 40.1410 -92.5060 97° East 478 550 39,000  Level FlightAware
05:30PM 40.1320 -92.4120 97° East 478 550 39,000  Level FlightAware
05:31PM 40.1230 -92.3200 97° East 478 550 39,000  Level FlightAware
05:31PM 40.1140 -92.2190 97° East 478 550 39,000  Level FlightAware
05:32PM 40.1030 -92.1110 98° East 478 550 39,000  Level FlightAware
05:32PM 40.0940 -92.0190 97° East 478 550 39,000  Level FlightAware
05:33PM 40.0820 -91.8920 97° East 477 549 39,000  Level FlightAware
05:34PM 40.0710 -91.7840 98° East 477 549 39,000  Level FlightAware
05:34PM 40.0610 -91.6860 98° East 476 548 39,000  Level FlightAware
05:35PM 40.0470 -91.5540 98° East 477 549 39,000  Level FlightAware
05:36PM 40.0370 -91.4480 97° East 476 548 39,000  Level FlightAware
05:36PM 40.0260 -91.3450 98° East 476 548 39,000  Level FlightAware
05:37PM 40.0100 -91.1960 98° East 476 548 39,000  Level FlightAware
05:38PM 39.9990 -91.0940 98° East 476 548 39,000  Level FlightAware
05:38PM 39.9880 -90.9900 98° East 476 548 39,000  Level FlightAware
05:39PM 39.9780 -90.8910 97° East 476 548 39,000  Level FlightAware
05:40PM 39.9660 -90.7860 98° East 476 548 39,000  Level FlightAware
05:40PM 39.9550 -90.6820 98° East 476 548 39,000  Level FlightAware
05:41PM 39.9440 -90.5830 98° East 476 548 39,000  Level FlightAware
05:42PM 39.9320 -90.4740 98° East 477 549 39,000  Level FlightAware
05:42PM 39.9190 -90.3620 99° East 477 549 39,000  Level FlightAware
05:43PM 39.9080 -90.2610 98° East 477 549 39,000  Level FlightAware
05:43PM 39.8960 -90.1620 99° East 477 549 39,000  Level FlightAware
05:44PM 39.8860 -90.0690 98° East 476 548 39,000  Level FlightAware
05:44PM 39.8760 -89.9830 99° East 475 547 39,000  Level FlightAware
05:45PM 39.8620 -89.8700 99° East 474 545 39,000  Level FlightAware
05:46PM 39.8510 -89.7720 98° East 473 544 39,000  Level FlightAware
05:46PM 39.8420 -89.6810 97° East 472 543 39,000  Level FlightAware
05:47PM 39.8400 -89.5700 91° East 473 544 39,000  Level FlightAware
05:47PM 39.8410 -89.4800 89° East 472 543 39,000  Level FlightAware
05:48PM 39.8410 -89.3750 90° East 472 543 39,000  Level FlightAware
05:49PM 39.8420 -89.2720 89° East 471 542 39,000  Level FlightAware
05:49PM 39.8420 -89.1790 90° East 471 542 39,000  Level FlightAware
05:50PM 39.8420 -89.0770 90° East 470 541 39,000  Level FlightAware
05:50PM 39.8420 -88.9820 90° East 469 540 39,000  Level FlightAware
05:51PM 39.8420 -88.8660 90° East 469 540 39,000  Level FlightAware
05:52PM 39.8420 -88.7620 90° East 469 540 39,000  Level FlightAware
05:52PM 39.8420 -88.6550 90° East 469 540 39,000  Level FlightAware
05:53PM 39.8420 -88.5690 90° East 469 540 39,000  Level FlightAware
05:53PM 39.8420 -88.4620 90° East 470 541 39,000  Level FlightAware
05:54PM 39.8410 -88.3600 91° East 470 541 39,000  Level FlightAware
05:55PM 39.8410 -88.2730 90° East 470 541 39,000  Level FlightAware
05:55PM 39.8400 -88.1640 91° East 469 540 39,000  Level FlightAware
05:56PM 39.8390 -88.0660 91° East 468 539 39,000  Level FlightAware
05:56PM 39.8390 -87.9740 90° East 468 539 39,000  Level FlightAware
05:57PM 39.8430 -87.8710 87° East 469 540 39,000  Level FlightAware
05:57PM 39.8550 -87.7810 80° East 470 541 39,000  Level FlightAware
05:58PM 39.8680 -87.6780 81° East 469 540 39,000  Level FlightAware
05:59PM 39.8800 -87.5780 81° East 468 539 39,000  Level FlightAware
05:59PM 39.8940 -87.4750 80° East 468 539 39,000  Level FlightAware
06:00PM 39.9050 -87.3910 80° East 467 537 39,000  Level FlightAware
06:00PM 39.9180 -87.2900 80° East 466 536 39,000  Level FlightAware
06:01PM 39.9310 -87.1880 81° East 465 535 39,000  Level FlightAware
06:02PM 39.9420 -87.0990 81° East 465 535 39,000  Level FlightAware
06:02PM 39.9550 -86.9980 80° East 465 535 39,000  Level FlightAware
06:03PM 39.9680 -86.8960 81° East 465 535 39,000  Level FlightAware
06:03PM 39.9790 -86.8050 81° East 464 534 39,000  Level FlightAware
06:04PM 39.9920 -86.7060 80° East 463 533 39,000  Level FlightAware
06:05PM 40.0030 -86.6120 81° East 462 532 39,000  Level FlightAware
06:05PM 40.0160 -86.5120 80° East 462 532 39,000  Level FlightAware
06:06PM 40.0260 -86.4250 81° East 462 532 39,000  Level FlightAware
06:06PM 40.0380 -86.3250 81° East 461 531 39,000  Level FlightAware
06:07PM 40.0500 -86.2270 81° East 461 531 39,000  Level FlightAware
06:07PM 40.0610 -86.1340 81° East 461 531 39,000  Level FlightAware
06:08PM 40.0730 -86.0330 81° East 461 531 39,000  Level FlightAware
06:09PM 40.0840 -85.9440 81° East 461 531 39,000  Level FlightAware
06:09PM 40.1070 -85.8460 73° East 461 531 39,000  Level FlightAware
06:10PM 40.1370 -85.7630 65° Northeast 460 529 39,000  Level FlightAware
06:10PM 40.1690 -85.6720 65° Northeast 459 528 39,000  Level FlightAware
06:11PM 40.2010 -85.5830 65° Northeast 459 528 39,000  Level FlightAware
06:11PM 40.2290 -85.5040 65° Northeast 458 527 39,000  Level FlightAware
06:12PM 40.2630 -85.4110 64° Northeast 458 527 39,000  Level FlightAware
06:13PM 40.2920 -85.3300 65° Northeast 456 525 39,000  Level FlightAware
06:13PM 40.3260 -85.2340 65° Northeast 456 525 39,000  Level FlightAware
06:14PM 40.3590 -85.1390 65° Northeast 455 524 39,000  Level FlightAware
06:14PM 40.3860 -85.0630 65° Northeast 454 522 39,000  Level FlightAware
06:15PM 40.4170 -84.9750 65° Northeast 453 521 39,000  Level FlightAware
06:16PM 40.4500 -84.8830 65° Northeast 452 520 39,000  Level FlightAware
06:16PM 40.4790 -84.8000 65° Northeast 452 520 39,000  Level FlightAware
06:17PM 40.5110 -84.7090 65° Northeast 451 519 39,000  Level FlightAware
06:17PM 40.5420 -84.6180 66° East 451 519 39,000  Level FlightAware
06:18PM 40.5700 -84.5370 66° East 450 518 39,000  Level FlightAware
06:18PM 40.6000 -84.4500 66° East 448 516 39,000  Level FlightAware
06:19PM 40.6320 -84.3580 65° Northeast 448 516 39,000  Level FlightAware
06:20PM 40.6580 -84.2830 65° Northeast 448 516 39,000  Level FlightAware
06:20PM 40.6910 -84.1870 66° East 448 516 39,000  Level FlightAware
06:21PM 40.7200 -84.1030 65° Northeast 448 516 39,000  Level FlightAware
06:21PM 40.7490 -84.0150 66° East 448 516 39,000  Level FlightAware
06:22PM 40.7780 -83.9300 66° East 449 517 39,000  Level FlightAware
06:23PM 40.8080 -83.8410 66° East 449 517 39,000  Level FlightAware
06:23PM 40.8380 -83.7530 66° East 450 518 39,000  Level FlightAware
06:24PM 40.8680 -83.6630 66° East 451 519 39,000  Level FlightAware
06:24PM 40.8990 -83.5720 66° East 453 521 39,000  Level FlightAware
06:25PM 40.9290 -83.4810 66° East 454 522 39,000  Level FlightAware
06:25PM 40.9560 -83.4000 66° East 454 522 39,000  Level FlightAware
06:26PM 40.9860 -83.3090 66° East 454 522 39,000  Level FlightAware
06:27PM 41.0170 -83.2160 66° East 454 522 39,000  Level FlightAware
06:27PM 41.0470 -83.1260 66° East 454 522 39,000  Level FlightAware
06:28PM 41.0730 -83.0460 67° East 454 522 39,000  Level FlightAware
06:28PM 41.1030 -82.9530 67° East 454 522 39,000  Level FlightAware
06:29PM 41.1340 -82.8600 66° East 452 520 39,000  Level FlightAware
06:30PM 41.1630 -82.7680 67° East 453 521 39,000  Level FlightAware
06:30PM 41.1900 -82.6860 66° East 453 521 39,000  Level FlightAware
06:31PM 41.2180 -82.6000 67° East 454 522 39,000  Level FlightAware
06:31PM 41.2470 -82.5110 67° East 454 522 39,000  Level FlightAware
06:32PM 41.2790 -82.4100 67° East 454 522 39,000  Level FlightAware
06:33PM 41.3080 -82.3190 67° East 453 521 39,000  Level FlightAware
06:33PM 41.3340 -82.2380 67° East 453 521 39,000  Level FlightAware
06:34PM 41.3640 -82.1430 67° East 454 522 39,000  Level FlightAware
06:34PM 41.3890 -82.0560 69° East 452 520 39,000  Level FlightAware
06:35PM 41.4140 -81.9700 69° East 452 520 39,000  Level FlightAware
06:35PM 41.4410 -81.8720 70° East 452 520 39,000  Level FlightAware
06:36PM 41.4680 -81.7800 69° East 452 520 39,000  Level FlightAware
06:37PM 41.4950 -81.6860 69° East 453 521 39,000  Level FlightAware
06:37PM 41.5230 -81.5880 69° East 453 521 39,000  Level FlightAware
06:38PM 41.5470 -81.5020 70° East 453 521 39,000  Level FlightAware
06:38PM 41.5720 -81.4150 69° East 452 520 39,000  Level FlightAware
06:39PM 41.6020 -81.3050 70° East 451 519 39,000  Level FlightAware
06:40PM 41.6230 -81.2320 69° East 449 517 39,000  Level FlightAware
06:40PM 41.6400 -81.1710 70° East 448 516 39,000  Level FlightAware
06:41PM 41.6820 -81.0190 70° East 444 511 39,000  Level FlightAware
06:42PM 41.7110 -80.9170 69° East 443 510 39,000 -300 Level FlightAware
06:42PM 41.7310 -80.8410 71° East 445 512 38,700 -1,260 Descending FlightAware
06:43PM 41.7550 -80.7550 69° East 455 524 37,600 -2,280 Descending FlightAware
06:43PM 41.7890 -80.6300 70° East 474 545 36,000 -1,980 Descending FlightAware
06:44PM 41.8140 -80.5380 70° East 482 555 35,200 -1,440 Descending FlightAware
06:45PM 41.8390 -80.4450 70° East 484 557 34,400 -1,560 Descending FlightAware
06:45PM 41.8720 -80.3260 70° East 492 566 33,300 -1,560 Descending FlightAware
06:46PM 41.8970 -80.2320 70° East 494 568 32,500 -1,380 Descending FlightAware
06:46PM 41.9290 -80.1130 70° East 496 571 31,600 -1,320 Descending FlightAware
06:47PM 41.9520 -80.0250 71° East 500 575 31,000 -600 Descending FlightAware
06:48PM 41.9790 -79.9240 70° East 502 578 31,000  Level FlightAware
06:48PM 42.0110 -79.8060 70° East 496 571 31,000  Level FlightAware
06:49PM 42.0340 -79.7180 71° East 496 571 31,000  Level FlightAware
06:49PM 42.0600 -79.6160 71° East 492 566 31,000  Level FlightAware
06:50PM 42.0900 -79.5020 70° East 490 564 31,000  Level FlightAware
06:50PM 42.1130 -79.4140 71° East 489 563 31,000  Level FlightAware
06:51PM 42.1380 -79.3170 71° East 488 562 31,000  Level FlightAware
06:52PM 42.1680 -79.2000 71° East 488 562 31,000  Level FlightAware
06:52PM 42.1780 -79.1100 81° East 495 570 31,000  Level FlightAware
06:53PM 42.1560 -78.9870 104° East 505 581 31,000  Level FlightAware
06:53PM 42.1300 -78.8850 109° East 505 581 31,000  Level FlightAware
06:54PM 42.1020 -78.7740 109° East 501 577 31,000  Level FlightAware
06:55PM 42.0780 -78.6810 109° East 493 567 31,000  Level FlightAware
06:55PM 42.0460 -78.5810 113° Southeast 493 567 31,000  Level FlightAware
06:56PM 42.0040 -78.4860 121° Southeast 495 570 31,000  Level FlightAware
06:56PM 41.9610 -78.3890 121° Southeast 495 570 31,000  Level FlightAware
06:57PM 41.9240 -78.2800 114° Southeast 490 564 31,000  Level FlightAware
06:58PM 41.9110 -78.1550 98° East 491 565 31,000  Level FlightAware
06:58PM 41.8980 -78.0520 100° East 492 566 31,000  Level FlightAware
06:59PM 41.8840 -77.9680 103° East 489 563 31,000  Level FlightAware
07:00PM 41.8610 -77.8390 103° East 491 565 31,000  Level FlightAware
07:00PM 41.8390 -77.7520 109° East 498 573 31,000  Level FlightAware
07:01PM 41.8140 -77.6540 109° East 499 574 31,000  Level FlightAware
07:01PM 41.7860 -77.5520 110° East 495 570 31,000  Level FlightAware
07:02PM 41.7590 -77.4520 110° East 492 566 31,000  Level FlightAware
07:02PM 41.7310 -77.3470 110° East 491 565 31,000  Level FlightAware
07:03PM 41.7040 -77.2460 110° East 490 564 31,000  Level FlightAware
07:04PM 41.6800 -77.1580 110° East 490 564 31,000  Level FlightAware
07:04PM 41.6390 -77.0030 109° East 500 575 31,000  Level FlightAware
07:05PM 41.6120 -76.9050 110° East 503 579 31,000  Level FlightAware
07:06PM 41.5860 -76.8110 110° East 502 578 31,000  Level FlightAware
07:06PM 41.5560 -76.7000 110° East 497 572 31,000  Level FlightAware
07:07PM 41.5330 -76.6150 110° East 497 572 31,000  Level FlightAware
07:07PM 41.5020 -76.5040 110° East 495 570 31,000  Level FlightAware
07:08PM 41.4720 -76.3950 110° East 498 573 31,000  Level FlightAware
07:08PM 41.4480 -76.3090 110° East 499 574 31,000  Level FlightAware
07:09PM 41.4120 -76.1810 111° Southeast 500 575 31,000  Level FlightAware
07:10PM 41.3830 -76.0780 111° Southeast 500 575 31,000  Level FlightAware
07:10PM 41.3550 -75.9780 110° East 501 577 31,000 -180 Level FlightAware
07:11PM 41.3270 -75.8780 110° East 500 575 30,800 -1,560 Descending FlightAware
07:11PM 41.3000 -75.7870 112° Southeast 504 580 29,300 -2,820 Descending FlightAware
07:12PM 41.2670 -75.6720 111° Southeast 495 570 27,500 -2,400 Descending FlightAware
07:13PM 41.2400 -75.5920 114° Southeast 483 556 26,600 -1,920 Descending FlightAware
07:13PM 41.2100 -75.5010 114° Southeast 469 540 25,400 -2,400 Descending FlightAware
07:14PM 41.1750 -75.3960 114° Southeast 461 531 23,700 -2,040 Descending FlightAware
07:14PM 41.1470 -75.3140 114° Southeast 465 535 23,000 -660 Descending FlightAware
07:15PM 41.1180 -75.2280 114° Southeast 466 536 23,000  Level FlightAware
07:16PM 41.0830 -75.1250 114° Southeast 463 533 23,000  Level FlightAware
07:16PM 41.0530 -75.0360 114° Southeast 464 534 23,000  Level FlightAware
07:17PM 41.0250 -74.9530 114° Southeast 465 535 23,000 -120 Level FlightAware
07:17PM 40.9950 -74.8470 111° Southeast 462 532 22,900 -780 Descending FlightAware
07:18PM 40.9830 -74.7590 100° East 450 518 22,100 -1,920 Descending FlightAware
07:18PM 40.9740 -74.6690 98° East 442 509 20,800 -2,400 Descending FlightAware
07:19PM 40.9630 -74.5630 98° East 436 502 19,200 -1,560 Descending FlightAware
07:20PM 40.9530 -74.4770 99° East 436 502 19,000 -180 Descending FlightAware
07:20PM 40.9430 -74.3840 98° East 423 487 19,000  Level FlightAware
07:21PM 40.9340 -74.3000 98° East 384 442 19,000  Level FlightAware
07:21PM 40.9250 -74.2260 99° East 366 421 19,000  Level FlightAware
07:22PM 40.9190 -74.1940 104° East 362 417 19,000 -360 Level FlightAware
07:22PM 40.8930 -74.1190 115° Southeast 363 418 18,700 -720 Descending FlightAware
07:22PM 40.8823 -74.0880 115° Southeast 360 414 18,400 -1,680 Descending FlightAware ADS-B
07:23PM 40.8610 -74.0231 113° Southeast 360 414 17,400 -1,680 Descending FlightAware ADS-B
07:24PM 40.8369 -73.9522 114° Southeast 357 411 16,500 -1,560 Descending FlightAware ADS-B
07:25PM 40.7840 -73.8400 122° Southeast 348 400 14,900 -1,500 Descending FlightAware
07:25PM 40.7677 -73.8081 124° Southeast 344 396 14,500 -1,440 Descending FlightAware ADS-B
07:26PM 40.7310 -73.7450 127° Southeast 331 381 13,600 -1,440 Descending FlightAware
07:26PM 40.7110 -73.7300 150° Southeast 321 369 13,200 -1,800 Descending FlightAware
07:26PM 40.6660 -73.7100 161° South 314 361 12,200 -1,860 Descending FlightAware
07:27PM 40.6160 -73.6900 163° South 308 354 11,100 -1,860 Descending FlightAware
07:28PM 40.5690 -73.6710 163° South 298 343 10,000 -1,800 Descending FlightAware
07:28PM 40.5530 -73.6650 164° South 293 337 9,700 -1,680 Descending FlightAware
07:28PM 40.5230 -73.6530 163° South 291 335 9,000 -1,800 Descending FlightAware
07:28PM 40.4960 -73.6440 166° South 288 331 8,400 -1,800 Descending FlightAware
07:29PM 40.4590 -73.6450 181° South 282 325 7,600 -1,800 Descending FlightAware
07:29PM 40.4330 -73.6470 183° South 279 321 7,000 -1,680 Descending FlightAware
07:30PM 40.4140 -73.6560 200° South 270 311 6,600 -1,500 Descending FlightAware
07:30PM 40.4110 -73.6590 217° Southwest 267 307 6,500 -1,500 Descending FlightAware
07:30PM 40.4040 -73.6680 224° Southwest 263 303 6,300 -1,920 Descending FlightAware
07:30PM 40.3990 -73.6790 239° Southwest 260 299 6,000 -1,800 Descending FlightAware
07:30PM 40.3940 -73.6950 248° West 259 298 5,700 -2,040 Descending FlightAware
07:30PM 40.3820 -73.7280 244° Southwest 263 303 4,900 -1,860 Descending FlightAware
07:31PM 40.3740 -73.7490 243° Southwest 264 304 4,600 -1,200 Descending FlightAware
07:31PM 40.3640 -73.7780 246° West 259 298 4,200 -900 Descending FlightAware
07:31PM 40.3620 -73.7880 255° West 254 292 4,200 -480 Level FlightAware
07:31PM 40.3600 -73.7990 257° West 247 284 4,100 -360 Descending FlightAware
07:31PM 40.3590 -73.8160 266° West 238 274 4,100 -360 Level FlightAware
07:32PM 40.3570 -73.8480 265° West 226 260 3,900 -660 Descending FlightAware
07:32PM 40.3560 -73.8690 266° West 220 253 3,700 -180 Descending FlightAware
07:32PM 40.3610 -73.8920 286° West 202 232 3,800 120 Climbing FlightAware
07:33PM 40.3690 -73.9110 299° West 186 214 3,800 -240 Level FlightAware
07:33PM 40.3740 -73.9200 306° West 180 207 3,700 -360 Descending FlightAware
07:33PM 40.3790 -73.9250 323° Northwest 181 208 3,700 360 Level FlightAware
07:33PM 40.3850 -73.9280 339° North 184 212 3,800  Climbing FlightAware
07:33PM 40.4040 -73.9360 342° North 189 217 3,700 -180 Descending FlightAware
07:34PM 40.4200 -73.9440 339° North 190 219 3,700 -240 Level FlightAware
07:34PM 40.4310 -73.9470 348° North 190 219 3,600 -600 Descending FlightAware
07:34PM 40.4380 -73.9480 354° North 188 216 3,500 -540 Descending FlightAware
07:34PM 40.4520 -73.9500 354° North 192 221 3,400 -180 Descending FlightAware
07:35PM 40.4700 -73.9520 355° North 191 220 3,400  Level FlightAware
07:35PM 40.4800 -73.9540 351° North 191 220 3,400 -420 Level FlightAware
07:35PM 40.4980 -73.9570 353° North 194 223 3,200 -720 Descending FlightAware
07:36PM 40.5120 -73.9600 351° North 192 221 3,000 -840 Descending FlightAware
07:36PM 40.5410 -73.9530 10° North 197 227 2,500 -900 Descending FlightAware
07:36PM 40.5510 -73.9450 31° Northeast 200 230 2,300 -960 Descending FlightAware
07:37PM 40.5680 -73.9310 32° Northeast 204 235 2,000 -720 Descending FlightAware
07:37PM 40.5780 -73.9230 31° Northeast 202 232 1,900 -840 Descending FlightAware
07:37PM 40.5950 -73.9080 34° Northeast 200 230 1,500 -840 Descending FlightAware
07:38PM 40.6140 -73.8930 31° Northeast 190 219 1,300 -780 Descending FlightAware
07:38PM 40.6330 -73.8790 29° Northeast 167 192 900 -900 Descending FlightAware
07:38PM 40.6480 -73.8680 29° Northeast 148 170 600 -600 Descending FlightAware
07:39PM 40.6590 -73.8590 32° Northeast 146 168 500 -240 Descending FlightAware
07:39PM 40.6660 -73.8530 33° Northeast 147 169 500  Level FlightAware
07:39PM 40.6690 -73.8470 57° Northeast 140 161 500  Level FlightAware
07:39PM 40.6700 -73.8400 79° East 133 153 500 -240 Level FlightAware
07:40PM 40.6690 -73.8240 95° East 133 153 400 -420 Descending FlightAware
07:40PM 40.6670 -73.8150 106° East 131 151 300 -660 Descending FlightAware
07:40PM 40.6640 -73.8030 108° East 131 151 100 -780 Descending FlightAware
07:40PM 40.6590 -73.7930 123° Southeast 133 153 -420 Descending FlightAware
07:41PM 40.6520 -73.7780 122° Southeast 125 144  Level FlightAware
07:41PM 40.6510 -73.7750 114° Southeast 94 108  Level FlightAware